Home > Weather > São Luis > Past weeks

Flag for Brazil Weather for the Past 2 Weeks in São Luis, Maranhão, Brazil

Now
81 °F

Passing clouds.


Feels Like: 86 °F
Forecast: 80 / 87 °F
Wind: 3 mph from East

Location: Sao Luiz Aeroporto

Current Time: Feb 6, 2016 at 12:42:53 AM

Latest Report: Feb 6, 2016 at 12:00 AM


Visibility: N/A

Pressure: 29.92 "Hg

Humidity: 84%

Dew point: 75 °F

Location of São LuisLocation

Historic Weather in São Luis — Graph

°F

São Luis Temperature Yesterday

Maximum temperature yesterday: 90 °F (at 12:00 PM)
Minimum temperature yesterday: 77 °F (at 6:00 AM)
Average temperature yesterday: 82 °F

High & Low Weather Summary for the Past Weeks

 TemperatureHumidityPressure
High90 °F (Feb 5, 12:00 PM)100% (Jan 24, 9:00 AM)29.98 "Hg (Jan 24, 9:00 AM)
Low43 °F (Jan 24, 9:00 AM)52% (Jan 30, 4:00 PM)29.77 "Hg (Feb 3, 5:00 PM)
Average80 °F77%29.88 "Hg
* Reported Jan 21 11:00 PM — Feb 5 11:00 PM, São Luis, Weather by CustomWeather, © 2016

Note: Actual official high and low records may vary slightly from our data, if they occured in-between our weather recording intervals... More about our weather records

Advertising

São Luis Weather History for the Previous 24 Hours

 ConditionsComfort  
Time TempWeatherWind HumidityBarometerVisibility
11:00 PM
Fri, Feb 5
81 °FPassing clouds.6 mph84%29.92 "HgN/A
10:00 PM81 °FPassing clouds.7 mph84%29.92 "HgN/A
9:00 PM81 °FPassing clouds.7 mph84%29.89 "HgN/A
8:00 PM81 °FPassing clouds.12 mph84%29.89 "HgN/A
7:00 PM82 °FPassing clouds.13 mph79%29.86 "HgN/A
6:00 PM82 °FScattered clouds.9 mph79%29.86 "HgN/A
5:00 PM82 °FPartly sunny.12 mph79%29.83 "HgN/A
4:00 PM81 °FPartly sunny.8 mph70%29.83 "HgN/A
3:00 PM88 °FPartly sunny.16 mph62%29.83 "HgN/A
2:00 PM90 °FPartly sunny.12 mph59%29.86 "HgN/A
1:00 PM90 °FPartly sunny.10 mph55%29.89 "HgN/A
12:00 PM90 °FPartly sunny.9 mph55%29.92 "HgN/A
11:00 AM88 °FPartly sunny.13 mph59%29.92 "HgN/A
10:00 AM86 °FPartly sunny.12 mph66%29.92 "HgN/A
9:00 AM84 °FPartly sunny.12 mph70%29.92 "HgN/A
8:00 AM82 °FScattered clouds.5 mph79%29.89 "HgN/A
7:00 AM79 °FPartly sunny.5 mph84%29.86 "HgN/A
6:00 AM77 °FPassing clouds.No wind89%29.83 "HgN/A
5:00 AM79 °FPassing clouds.3 mph84%29.83 "HgN/A
4:00 AM79 °FPassing clouds.2 mph84%29.83 "HgN/A
3:00 AM79 °FPassing clouds.5 mph84%29.83 "HgN/A
2:00 AM79 °FPassing clouds.6 mph84%29.83 "HgN/A
1:00 AM79 °FPassing clouds.6 mph84%29.86 "HgN/A
Weather by CustomWeather, © 2016

See weather overviewHow to use our weather pages